317  
ASUS41 KRLX 241010  
RWRRLX  
WEST VIRGINIA REGIONAL WEATHER ROUNDUP  
NATIONAL WEATHER SERVICE CHARLESTON WV  
ISSUED BY NATIONAL WEATHER SERVICE PITTSBURGH PA  
500 AM EST FRI NOV 24 2017  
 
NOTE: "FAIR" INDICATES FEW OR NO CLOUDS BELOW 12,000 FEET WITH NO  
SIGNIFICANT WEATHER AND/OR S TO VISIBILITY
.  
 
WVZ003-241100-  
NORTHERN PANHANDLE OF WEST VIRGINIA  
 
CITY SKY/WX TMP DP RH WIND PRES REMARKS
 
WHEELING CLOUDY 29 21 72 S7 29.99S WCI 22  

 
 
WVZ009-241100-  
NORTHWEST WEST VIRGINIA  
 
CITY SKY/WX TMP DP RH WIND PRES REMARKS
 
PARKERSBURG CLEAR 24 21 88 CALM 30.05F  

 
 
WVZ006-241100-  
WESTERN WEST VIRGINIA  
 
CITY SKY/WX TMP DP RH WIND PRES REMARKS
 
HUNTINGTON CLOUDY 27 22 81 E5 30.03S WCI 22  

 
 
WVZ015-241100-  
WEST CENTRAL WEST VIRGINIA  
 
CITY SKY/WX TMP DP RH WIND PRES REMARKS
 
CHARLESTON CLOUDY 26 23 88 CALM 30.03S  

 
 
WVZ031-241100-  
NORTH CENTRAL WEST VIRGINIA  
 
CITY SKY/WX TMP DP RH WIND PRES REMARKS
 
CLARKSBURG CLEAR 26 20 77 CALM 30.03R  
MORGANTOWN CLOUDY 27 22 81 SW3 30.03S  

 
 
WVZ035-042-241100-  
SOUTH CENTRAL WEST VIRGINIA  
 
CITY SKY/WX TMP DP RH WIND PRES REMARKS
 
BECKLEY CLEAR 31 16 54 CALM 29.99F  
BLUEFIELD CLEAR 37 20 50 S3 30.00F  

 
 
WVZ045-241100-  
GREENBRIER VALLEY OF WEST VIRGINIA  
 
CITY SKY/WX TMP DP RH WIND PRES REMARKS
 
LEWISBURG CLOUDY 23 19 85 CALM 30.03F  

 
 
WVZ047-241100-  
NORTHERN MOUNTAINS OF WEST VIRGINIA  
 
CITY SKY/WX TMP DP RH WIND PRES REMARKS
 
ELKINS CLOUDY 21 18 88 CALM 30.02R  

 
 
WVZ052-241100-  
EASTERN PANHANDLE OF WEST VIRGINIA  
 
CITY SKY/WX TMP DP RH WIND PRES REMARKS
 
MARTINSBURG CLOUDY 24 20 84 CALM 30.04S  
PETERSBURG CLOUDY 22 20 93 CALM 30.05R  

 
 
 
CLICK HERE TO GO TO PREVIOUS BULLETINS.

The Nexlab WV Page
The Nexlab OH Page
The Nexlab KY Page
The Nexlab VA Page Main Text Page